Change the Weather History Date:

Tuesday, February 25, 2014

  Actual Average Record
Temperature  
Mean Temperature 43 °F 32 °F  
Max Temperature 62 °F 45 °F 67 °F (1986)
Min Temperature 23 °F 18 °F -15 °F (1993)
Degree Days  
Heating Degree Days 22 33  
Month to date heating degree days 815 909  
Since 1 July heating degree days 4936 5238  
Cooling Degree Days 0 0  
Month to date cooling degree days 0 0  
Year to date cooling degree days 0 0  
Moisture  
Dew Point 18 °F    
Average Humidity 45    
Maximum Humidity 74    
Minimum Humidity 16    
Precipitation  
Precipitation 0.00 in 0.03 in 1.38 in (1969)
Month to date precipitation 0.35 0.66  
Year to date precipitation 1.14 1.36  
Snow  
Snow 0.00 in 0.30 in 7.00 in (1969)
Month to date snowfall 0.8 7.1  
Since 1 July snowfall 36.5 34.1  
Snow Depth 0.00 in    
Sea Level Pressure  
Sea Level Pressure 29.99 in    
Wind  
Wind Speed 7 mph (SSE)    
Max Wind Speed 14 mph    
Max Gust Speed 16 mph    
Visibility 10 miles    
Events      
T = Trace of Precipitation, MM = Missing Value Source: NWS Daily Summary

Daily Weather History Graph

Daily Weather History Graph

Search for Another Location

Airport or City:

Trip Planner

Search our weather history database for the weather conditions in past years. The results will help you decide how hot, cold, wet, or windy it might be!

Date:

Astronomy

Feb. 25, 2014 Rise Set
Actual Time 6:17 AM PST 5:27 PM PST
Civil Twilight 5:50 AM PST 5:54 PM PST
Nautical Twilight 5:19 AM PST 6:25 PM PST
Astronomical Twilight 4:48 AM PST 6:56 PM PST
Moon 3:15 AM PST (2/25) 1:39 PM PST (2/25)
Length of Visible Light 12h 03m
Length of Day
11h 09m
Waning Crescent, 17% of the Moon is Illuminated
Feb 25
Waning Crescent
Mar 1
New
Mar 8
First Quarter
Mar 16
Full
Mar 23
Last Quarter

Hourly Weather History & Observations

Time (PST) Temp. Windchill Dew Point Humidity Pressure Visibility Wind Dir Wind Speed Gust Speed Precip Events Conditions
12:53 AM 28.0 °F 18.1 °F 18.0 °F 66% 30.01 in 10.0 mi South 11.5 mph - N/A   Clear
1:53 AM 26.1 °F 21.9 °F 17.1 °F 69% 30.00 in 10.0 mi Variable 3.5 mph - N/A   Clear
2:53 AM 24.1 °F 16.0 °F 17.1 °F 75% 30.01 in 10.0 mi South 6.9 mph - N/A   Clear
3:53 AM 24.1 °F 15.2 °F 17.1 °F 75% 30.00 in 10.0 mi South 8.1 mph - N/A   Clear
4:53 AM 25.0 °F 14.8 °F 17.1 °F 72% 30.02 in 10.0 mi South 10.4 mph - N/A   Clear
5:53 AM 24.1 °F 13.7 °F 17.1 °F 75% 30.10 in 10.0 mi South 10.4 mph - N/A   Clear
6:53 AM 25.0 °F 15.5 °F 17.1 °F 72% 30.12 in 10.0 mi SSE 9.2 mph - N/A   Clear
7:53 AM 35.1 °F 27.4 °F 21.0 °F 57% 30.09 in 10.0 mi South 10.4 mph - N/A   Clear
8:53 AM 45.0 °F 41.2 °F 18.0 °F 34% 30.06 in 10.0 mi South 6.9 mph - N/A   Clear
9:53 AM 51.1 °F - 17.1 °F 26% 30.02 in 10.0 mi Variable 3.5 mph - N/A   Clear
10:53 AM 55.9 °F - 15.1 °F 20% 29.99 in 10.0 mi Variable 4.6 mph - N/A   Clear
11:53 AM 59.0 °F - 15.1 °F 18% 29.96 in 10.0 mi NNE 4.6 mph - N/A   Clear
12:53 PM 59.0 °F - 15.1 °F 18% 29.94 in 10.0 mi NNW 5.8 mph - N/A   Clear
1:53 PM 60.1 °F - 14.0 °F 16% 29.93 in 10.0 mi Calm Calm - N/A   Clear
2:53 PM 60.1 °F - 15.1 °F 17% 29.92 in 10.0 mi East 5.8 mph - N/A   Clear
3:53 PM 61.0 °F - 15.1 °F 17% 29.90 in 10.0 mi NNE 3.5 mph - N/A   Clear
4:53 PM 57.0 °F - 17.1 °F 21% 29.92 in 10.0 mi North 8.1 mph - N/A   Clear
5:53 PM 48.0 °F - 18.0 °F 30% 29.97 in 10.0 mi Calm Calm - N/A   Clear
6:53 PM 37.9 °F 31.5 °F 19.9 °F 48% 30.02 in 10.0 mi South 9.2 mph - N/A   Clear
7:53 PM 36.0 °F 29.0 °F 21.0 °F 55% 30.00 in 10.0 mi SSE 9.2 mph - N/A   Clear
8:53 PM 35.1 °F 27.4 °F 19.9 °F 54% 29.98 in 10.0 mi South 10.4 mph - N/A   Clear
9:53 PM 32.0 °F 23.6 °F 19.9 °F 61% 29.97 in 10.0 mi South 10.4 mph - N/A   Clear
10:53 PM 28.9 °F 20.4 °F 19.9 °F 69% 29.97 in 10.0 mi South 9.2 mph - N/A   Clear
11:53 PM 28.0 °F 20.8 °F 19.9 °F 72% 29.96 in 10.0 mi South 6.9 mph - N/A   Clear